When you browse on this site, cookies collect data to enhance your experience and personalize the content and advertising you see.
Visit our Privacy Policy to learn more. By continuing to use the site, you agree to this use of cookies and data.
  • In Spain
  • List of Countries
  • For 7 days
  • Water Temperature
  • Satellite Maps
  • Weather Map
  • Weather Widgets
  • user-avatar
    Login

    Hourly Weather Korçe

    Today, 19 December, Wednesday

    Time Temperature Precipitation Wind Pressure Humidity
    00:00 -3°C° 0 mm 2 mps 667 mmHg 85%
    01:00 -3°C° 0 mm 2 mps 667 mmHg 85%
    02:00 -4°C° 0 mm 2 mps 667 mmHg 85%
    03:00 -4°C° 0 mm 2 mps 667 mmHg 84%
    04:00 -4°C° 0 mm 2 mps 667 mmHg 84%
    05:00 -4°C° 0 mm 2 mps 667 mmHg 84%
    06:00 -4°C° 0 mm 2 mps 667 mmHg 84%
    07:00 -5°C° 0 mm 2 mps 667 mmHg 84%
    08:00 -3°C° 0 mm 2 mps 668 mmHg 81%
    09:00 -2°C° 0 mm 2 mps 669 mmHg 78%
    10:00 +1°C° 0 mm 2 mps 670 mmHg 75%
    11:00 +3°C° 0 mm 1 mps 670 mmHg 75%
    12:00 +3°C° 0 mm 1 mps 670 mmHg 74%
    13:00 +4°C° 0 mm 1 mps 670 mmHg 74%
    14:00 +3°C° 0 mm 1 mps 670 mmHg 76%
    15:00 +2°C° 0 mm 1 mps 669 mmHg 79%
    16:00 +1°C° 0 mm 1 mps 669 mmHg 82%
    17:00 +1°C° 0 mm 1 mps 669 mmHg 82%
    18:00 0°C° 0 mm 1 mps 669 mmHg 83%
    19:00 -1°C° 0 mm 1 mps 669 mmHg 84%
    20:00 -1°C° 0 mm 1 mps 669 mmHg 84%
    21:00 -1°C° 0 mm 1 mps 670 mmHg 83%
    22:00 -1°C° 0 mm 1 mps 670 mmHg 83%
    23:00 -1°C° 0 mm 1 mps 670 mmHg 83%

    Tomorrow, 20 December, Thursday

    Time Temperature Precipitation Wind Pressure Humidity
    00:00 -1°C° 0 mm 1 mps 670 mmHg 83%
    01:00 -1°C° 0 mm 1 mps 670 mmHg 84%
    02:00 -1°C° 0 mm 1 mps 670 mmHg 84%
    03:00 -1°C° 0 mm 1 mps 670 mmHg 84%
    04:00 -1°C° 0 mm 1 mps 670 mmHg 84%
    05:00 -1°C° 0 mm 1 mps 670 mmHg 84%
    06:00 -1°C° 0 mm 1 mps 670 mmHg 84%
    07:00 -1°C° 0 mm 1 mps 670 mmHg 83%
    08:00 +1°C° 0 mm 1 mps 671 mmHg 81%
    09:00 +2°C° 0 mm 1 mps 671 mmHg 78%
    10:00 +4°C° 0 mm 1 mps 672 mmHg 76%
    11:00 +5°C° 0 mm 1 mps 672 mmHg 74%
    12:00 +5°C° 0 mm 1 mps 672 mmHg 72%
    13:00 +6°C° 0 mm 1 mps 671 mmHg 71%
    14:00 +5°C° 0 mm 1 mps 671 mmHg 74%
    15:00 +4°C° 0 mm 1 mps 671 mmHg 77%
    16:00 +3°C° 0 mm 1 mps 671 mmHg 81%
    17:00 +2°C° 0 mm 1 mps 671 mmHg 82%
    18:00 +2°C° 0 mm 1 mps 671 mmHg 84%
    19:00 +1°C° 0 mm 1 mps 671 mmHg 85%
    20:00 +1°C° 0 mm 1 mps 671 mmHg 86%
    21:00 -1°C° 0 mm 2 mps 671 mmHg 86%
    22:00 -1°C° 0 mm 2 mps 671 mmHg 86%
    23:00 -1°C° 0 mm 2 mps 671 mmHg 85%

    Day after tomorrow, 21 December, Friday

    Time Temperature Precipitation Wind Pressure Humidity
    00:00 -1°C° 0 mm 2 mps 671 mmHg 84%
    01:00 -1°C° 0 mm 2 mps 671 mmHg 83%
    02:00 -1°C° 0 mm 2 mps 671 mmHg 82%
    03:00 -1°C° 0 mm 2 mps 671 mmHg 82%
    04:00 +2°C° 0 mm 1 mps 671 mmHg 82%
    05:00 +2°C° 0 mm 1 mps 671 mmHg 83%
    06:00 +2°C° 0 mm 1 mps 671 mmHg 84%
    07:00 +2°C° 0 mm 1 mps 672 mmHg 85%
    08:00 +4°C° 0 mm 1 mps 672 mmHg 85%
    09:00 +5°C° 0 mm 1 mps 672 mmHg 84%
    10:00 +6°C° 0 mm 1 mps 673 mmHg 83%
    11:00 +7°C° 0 mm 1 mps 673 mmHg 81%
    12:00 +7°C° 0 mm 1 mps 673 mmHg 80%
    13:00 +8°C° 0 mm 1 mps 673 mmHg 79%
    14:00 +7°C° 0 mm 1 mps 672 mmHg 82%
    15:00 +6°C° 0 mm 1 mps 672 mmHg 86%
    16:00 +5°C° 0 mm 1 mps 672 mmHg 89%
    17:00 +5°C° 0 mm 1 mps 672 mmHg 90%
    18:00 +4°C° 0 mm 1 mps 672 mmHg 91%
    19:00 +3°C° 0 mm 1 mps 672 mmHg 92%
    20:00 +3°C° 0 mm 1 mps 672 mmHg 92%
    21:00 +3°C° 0 mm 1 mps 672 mmHg 92%
    22:00 +3°C° 0 mm 1 mps 672 mmHg 92%
    23:00 +3°C° 0 mm 1 mps 672 mmHg 92%

    22 December, Saturday

    Time Temperature Precipitation Wind Pressure Humidity
    00:00 +3°C° 0 mm 1 mps 672 mmHg 92%
    01:00 +2°C° 0 mm 1 mps 672 mmHg 92%
    02:00 +2°C° 0 mm 1 mps 671 mmHg 93%
    03:00 +2°C° 0 mm 1 mps 671 mmHg 93%
    04:00 +2°C° 0 mm 1 mps 671 mmHg 93%
    05:00 +2°C° 0 mm 1 mps 671 mmHg 93%
    06:00 +2°C° 0 mm 1 mps 671 mmHg 93%
    07:00 +2°C° 0 mm 1 mps 671 mmHg 93%
    08:00 +3°C° 0 mm 1 mps 672 mmHg 89%
    09:00 +5°C° 0 mm 1 mps 672 mmHg 85%
    10:00 +6°C° 0 mm 1 mps 673 mmHg 81%
    11:00 +7°C° 0 mm 1 mps 672 mmHg 79%
    12:00 +7°C° 0 mm 1 mps 672 mmHg 77%
    13:00 +7°C° 0 mm 2 mps 672 mmHg 75%
    14:00 +7°C° 0 mm 1 mps 671 mmHg 79%
    15:00 +6°C° 0 mm 1 mps 671 mmHg 83%
    16:00 +5°C° 0 mm 1 mps 671 mmHg 86%
    17:00 +4°C° 0 mm 1 mps 671 mmHg 88%
    18:00 +4°C° 0 mm 1 mps 671 mmHg 89%
    19:00 +3°C° 0 mm 1 mps 671 mmHg 91%
    20:00 +3°C° 0 mm 1 mps 671 mmHg 91%
    21:00 +3°C° 0 mm 1 mps 671 mmHg 90%
    22:00 +2°C° 0 mm 1 mps 670 mmHg 90%
    23:00 +2°C° 0 mm 1 mps 670 mmHg 89%

    23 December, Sunday

    Time Temperature Precipitation Wind Pressure Humidity
    00:00 +2°C° 0 mm 1 mps 670 mmHg 89%
    01:00 +2°C° 0 mm 1 mps 670 mmHg 88%
    02:00 +2°C° 0 mm 1 mps 670 mmHg 88%
    03:00 +2°C° 0 mm 1 mps 670 mmHg 87%
    04:00 +2°C° 0 mm 1 mps 669 mmHg 87%
    05:00 +2°C° 0 mm 1 mps 670 mmHg 87%
    06:00 +2°C° 0 mm 1 mps 670 mmHg 87%
    07:00 +2°C° 0 mm 1 mps 670 mmHg 87%
    08:00 +4°C° 0 mm 1 mps 671 mmHg 84%
    09:00 +5°C° 0 mm 1 mps 671 mmHg 80%
    10:00 +7°C° 0 mm 1 mps 672 mmHg 77%
    11:00 +8°C° 0 mm 1 mps 672 mmHg 75%
    12:00 +8°C° 0 mm 1 mps 672 mmHg 74%
    13:00 +8°C° 0 mm 2 mps 671 mmHg 73%
    14:00 +7°C° 0 mm 2 mps 671 mmHg 77%
    15:00 +7°C° 0 mm 1 mps 671 mmHg 82%
    16:00 +6°C° 0 mm 1 mps 671 mmHg 86%
    17:00 +5°C° 0 mm 1 mps 671 mmHg 87%
    18:00 +5°C° 0 mm 1 mps 671 mmHg 88%
    19:00 +4°C° 0 mm 1 mps 671 mmHg 89%
    20:00 +4°C° 0 mm 1 mps 671 mmHg 88%
    21:00 +4°C° 0 mm 1 mps 671 mmHg 87%
    22:00 +4°C° 0 mm 1 mps 671 mmHg 86%
    23:00 +4°C° 0 mm 1 mps 671 mmHg 85%

    24 December, Monday

    Time Temperature Precipitation Wind Pressure Humidity
    00:00 +4°C° 0 mm 1 mps 671 mmHg 84%
    01:00 +4°C° 0 mm 1 mps 671 mmHg 82%
    02:00 +4°C° 0 mm 1 mps 670 mmHg 82%
    03:00 +4°C° 0 mm 1 mps 670 mmHg 82%
    04:00 +4°C° 0 mm 1 mps 670 mmHg 81%
    05:00 +3°C° 0 mm 1 mps 670 mmHg 81%
    06:00 +3°C° 0 mm 1 mps 670 mmHg 81%
    07:00 +3°C° 0 mm 1 mps 670 mmHg 81%
    08:00 +5°C° 0 mm 1 mps 671 mmHg 78%
    09:00 +7°C° 0 mm 1 mps 671 mmHg 74%
    10:00 +8°C° 0 mm 1 mps 671 mmHg 71%
    11:00 +9°C° 0 mm 1 mps 671 mmHg 71%
    12:00 +10°C° 0 mm 1 mps 671 mmHg 70%
    13:00 +9°C° 0 mm 2 mps 671 mmHg 70%
    14:00 +8°C° 0 mm 2 mps 670 mmHg 75%
    15:00 +8°C° 0 mm 1 mps 670 mmHg 80%
    16:00 +7°C° 0 mm 1 mps 669 mmHg 86%
    17:00 +6°C° 0 mm 1 mps 669 mmHg 88%
    18:00 +6°C° 0 mm 1 mps 669 mmHg 90%
    19:00 +5°C° 0 mm 1 mps 669 mmHg 92%
    20:00 +5°C° 0 mm 1 mps 669 mmHg 92%
    21:00 +4°C° 0 mm 1 mps 669 mmHg 92%
    22:00 +4°C° 0 mm 1 mps 669 mmHg 92%
    23:00 +4°C° 0 mm 1 mps 669 mmHg 92%
    Show more